TimePST,TemperatureF,Dew PointF,Humidity,Sea Level PressureIn,VisibilityMPH,Wind Direction,Wind SpeedMPH,Gust SpeedMPH,PrecipitationIn,Events,Conditions,WindDirDegrees,DateUTC
12:56 AM,55.0,51.1,86,30.08,10.0,SE,9.2,-,N/A,,Mostly Cloudy,130,2014-03-04 08:56:00
1:56 AM,55.0,50.0,83,30.09,10.0,ESE,9.2,-,N/A,,Overcast,120,2014-03-04 09:56:00
2:29 AM,55.4,50.0,82,30.07,10.0,SE,9.2,-,N/A,,Overcast,140,2014-03-04 10:29:00
2:56 AM,55.9,51.1,84,30.08,10.0,SE,8.1,-,N/A,,Overcast,140,2014-03-04 10:56:00
3:56 AM,55.9,51.1,84,30.07,10.0,SE,6.9,-,N/A,,Overcast,130,2014-03-04 11:56:00
4:56 AM,55.9,51.1,84,30.06,10.0,SSE,3.5,-,N/A,,Overcast,150,2014-03-04 12:56:00
5:56 AM,55.9,51.1,84,30.08,10.0,SE,4.6,-,N/A,,Overcast,140,2014-03-04 13:56:00
6:56 AM,55.9,51.1,84,30.10,10.0,Calm,Calm,-,N/A,,Overcast,0,2014-03-04 14:56:00
7:53 AM,57.2,51.8,82,30.11,10.0,SSE,3.5,-,N/A,,Scattered Clouds,160,2014-03-04 15:53:00
7:56 AM,57.0,52.0,83,30.12,10.0,Calm,Calm,-,N/A,,Partly Cloudy,0,2014-03-04 15:56:00
8:56 AM,59.0,52.0,78,30.12,10.0,Calm,Calm,-,N/A,,Partly Cloudy,0,2014-03-04 16:56:00
9:56 AM,62.1,53.1,72,30.13,10.0,North,4.6,-,N/A,,Clear,350,2014-03-04 17:56:00
10:56 AM,63.0,55.0,75,30.13,10.0,NNE,3.5,-,N/A,,Partly Cloudy,30,2014-03-04 18:56:00
11:56 AM,66.0,54.0,65,30.12,10.0,NE,4.6,-,N/A,,Clear,40,2014-03-04 19:56:00
12:56 PM,66.0,54.0,65,30.09,10.0,North,6.9,-,N/A,,Clear,360,2014-03-04 20:56:00
1:56 PM,66.0,54.0,65,30.07,10.0,North,8.1,-,N/A,,Clear,350,2014-03-04 21:56:00
2:56 PM,64.0,54.0,70,30.06,10.0,NNW,6.9,-,N/A,,Clear,330,2014-03-04 22:56:00
3:56 PM,62.1,54.0,75,30.07,10.0,NW,10.4,-,N/A,,Clear,320,2014-03-04 23:56:00
4:56 PM,62.1,54.0,75,30.07,10.0,NNW,10.4,-,N/A,,Clear,340,2014-03-05 00:56:00
5:53 PM,60.8,53.6,77,30.07,10.0,WNW,5.8,-,N/A,,Mostly Cloudy,300,2014-03-05 01:53:00
5:56 PM,60.1,54.0,80,30.07,10.0,NW,5.8,-,N/A,,Mostly Cloudy,310,2014-03-05 01:56:00
6:03 PM,60.8,53.6,77,30.06,10.0,NW,6.9,-,N/A,,Scattered Clouds,320,2014-03-05 02:03:00
6:56 PM,60.1,54.0,80,30.08,10.0,Calm,Calm,-,N/A,,Clear,0,2014-03-05 02:56:00
7:56 PM,59.0,54.0,83,30.10,10.0,Calm,Calm,-,N/A,,Partly Cloudy,0,2014-03-05 03:56:00
8:56 PM,59.0,53.1,81,30.10,10.0,Calm,Calm,-,N/A,,Clear,0,2014-03-05 04:56:00
9:56 PM,57.0,53.1,87,30.12,10.0,Calm,Calm,-,N/A,,Clear,0,2014-03-05 05:56:00
10:24 PM,57.2,53.6,88,30.10,10.0,Calm,Calm,-,N/A,,Mostly Cloudy,0,2014-03-05 06:24:00
10:40 PM,57.2,53.6,88,30.10,10.0,Calm,Calm,-,N/A,,Scattered Clouds,0,2014-03-05 06:40:00
10:56 PM,57.9,54.0,87,30.11,10.0,Calm,Calm,-,N/A,,Partly Cloudy,0,2014-03-05 06:56:00
11:56 PM,57.0,53.1,87,30.11,10.0,Calm,Calm,-,N/A,,Mostly Cloudy,0,2014-03-05 07:56:00